Simultaneous Nadir Overpasses (SNOs) Predictions

Prediction of SNOs between AQUA and METOP-B Satellite Orbit:

Table of predicted SNOs for the next 14.0 days since TLE Epoch: 1/11/2014
Index Date (AQUA) Time (AQUA) Lat,Lon (AQUA) SZA (AQUA ) Date (METOP-B) Time (METOP-B) Lat,Lon (METOP-B) SZA (METOP-B ) Distance(km) Time Diff (sec)
1 01/11/2014 13:39:43 72.96, -28.96 94.71 01/11/2014 13:38:38 72.93, -31.95 94.80 97.51 65
2 01/11/2014 14:29:23 -73.73, 137.09 84.48 01/11/2014 14:29:04 -73.72, 137.14 84.50 2.64 19
3 01/11/2014 15:18:51 73.75, -55.32 95.54 01/11/2014 15:19:43 73.76, -55.42 95.54 3.14 52
4 01/14/2014 09:14:02 73.46, 36.50 94.77 01/14/2014 09:12:51 73.40, 35.49 94.76 32.90 71
5 01/14/2014 10:03:33 -73.75,-156.48 84.93 01/14/2014 10:03:26 -73.73,-156.42 84.95 3.02 7
6 01/14/2014 10:53:01 73.77, 11.10 95.10 01/14/2014 10:54:05 73.77, 11.02 95.09 2.38 64
7 01/17/2014 04:48:14 73.64, 102.59 94.45 01/17/2014 04:47:08 73.65, 102.48 94.48 3.48 66
8 01/17/2014 05:37:41 -73.72, -89.94 85.48 01/17/2014 05:37:48 -73.73, -90.00 85.46 2.31 7
9 01/17/2014 06:27:12 73.90, 77.28 94.72 01/17/2014 06:28:24 73.93, 77.80 94.71 16.27 72
10 01/20/2014 00:22:21 73.67, 169.00 93.91 01/20/2014 00:21:28 73.70, 169.00 93.95 3.12 53
11 01/20/2014 01:11:48 -73.74, -23.53 86.02 01/20/2014 01:12:08 -73.77, -23.49 86.00 3.29 20
12 01/20/2014 02:01:29 74.45, 142.49 94.74 01/20/2014 02:02:34 74.46, 145.57 94.64 91.85 65
13 01/22/2014 19:56:28 73.70,-124.60
